Weather History for Jonesville, VA

Change the Weather History Date:

Thursday, February 7, 2013

  Actual Average (KLOZ) Record (KLOZ)
Temperature  
Mean Temperature 44 °F 38 °F  
Max Temperature 57 °F 48 °F 67 °F (2009)
Min Temperature 30 °F 28 °F -10 °F (1978)
Degree Days  
Heating Degree Days 22 27  
Month to date heating degree days 194  
Since 1 July heating degree days 2757  
Cooling Degree Days 0 0  
Month to date cooling degree days 0  
Year to date cooling degree days 0  
Moisture  
Dew Point 32 °F    
Average Humidity 65    
Maximum Humidity 93    
Minimum Humidity 35    
Precipitation  
Precipitation 0.00 in 0.13 in 0.65 in (1961)
Month to date precipitation 0.90  
Year to date precipitation 4.44  
Sea Level Pressure  
Sea Level Pressure 30.10 in    
Wind  
Wind Speed 2 mph (East)    
Max Wind Speed 8 mph    
Max Gust Speed -    
Visibility 10 miles    
Events      
T = Trace of Precipitation, MM = Missing Value Source: NWS Daily Summary

Daily Weather History Graph

Daily Weather History Graph

Search for Another Location

Airport:

Trip Planner

Search our weather history database for the weather conditions in past years. The results will help you decide how hot, cold, wet, or windy it might be!

Date:

Astronomy

Feb. 07, 2013 Rise Set
Actual Time 7:29 AM EST 6:05 PM EST
Civil Twilight 7:02 AM EST 6:32 PM EST
Nautical Twilight 6:31 AM EST 7:02 PM EST
Astronomical Twilight 6:01 AM EST 7:33 PM EST
Moon 5:05 AM EST (2/7) 3:30 PM EST (2/7)
Length of Visible Light 11h 29m
Length of Day
10h 36m
Waning Crescent, 9% of the Moon is Illuminated
Feb 7
Waning Crescent
Feb 10
New
Feb 17
First Quarter
Feb 25
Full
Mar 4
Last Quarter

Hourly Weather History & Observations

Time (EST) Temp. Windchill Dew Point Humidity Pressure Visibility Wind Dir Wind Speed Gust Speed Precip Events Conditions
12:15 AM 32.0 °F - 28.4 °F 87% 30.19 in 10.0 mi Calm Calm - N/A   Clear
12:35 AM 32.0 °F - 28.4 °F 87% 30.19 in 10.0 mi Calm Calm - N/A   Clear
12:55 AM 30.2 °F - 28.4 °F 93% 30.18 in 10.0 mi Calm Calm - N/A   Clear
1:15 AM 32.0 °F - 28.4 °F 87% 30.17 in 10.0 mi Calm Calm - N/A   Clear
1:35 AM 32.0 °F - 28.4 °F 87% 30.17 in 10.0 mi Calm Calm - N/A   Clear
1:55 AM 32.0 °F - 30.2 °F 93% 30.17 in 10.0 mi Calm Calm - N/A   Clear
2:15 AM 32.0 °F - 30.2 °F 93% 30.17 in 10.0 mi Calm Calm - N/A   Clear
2:35 AM 32.0 °F - 30.2 °F 93% 30.17 in 10.0 mi Calm Calm - N/A   Clear
2:55 AM 32.0 °F - 28.4 °F 87% 30.17 in 10.0 mi Calm Calm - N/A   Clear
3:15 AM 32.0 °F - 30.2 °F 93% 30.18 in 10.0 mi Calm Calm - N/A   Clear
3:35 AM 32.0 °F - 30.2 °F 93% 30.18 in 10.0 mi Calm Calm - N/A   Clear
3:55 AM 32.0 °F - 30.2 °F 93% 30.18 in 10.0 mi Calm Calm - N/A   Clear
4:15 AM 32.0 °F - 28.4 °F 87% 30.18 in 10.0 mi Calm Calm - N/A   Clear
4:35 AM 32.0 °F - 30.2 °F 93% 30.18 in 10.0 mi Calm Calm - N/A   Clear
4:55 AM 32.0 °F - 30.2 °F 93% 30.19 in 10.0 mi Calm Calm - N/A   Clear
5:15 AM 32.0 °F - 30.2 °F 93% 30.19 in 10.0 mi Calm Calm - N/A   Mostly Cloudy
5:35 AM 32.0 °F - 28.4 °F 87% 30.19 in 10.0 mi Calm Calm - N/A   Scattered Clouds
5:55 AM 33.8 °F 28.6 °F 28.4 °F 81% 30.19 in 10.0 mi NE 5.8 mph - N/A   Scattered Clouds
6:15 AM 35.6 °F - 28.4 °F 75% 30.19 in 10.0 mi Calm Calm - N/A   Partly Cloudy
6:35 AM 35.6 °F - 28.4 °F 75% 30.19 in 10.0 mi Calm Calm - N/A   Clear
7:15 AM 37.4 °F - 28.4 °F 70% 30.19 in 10.0 mi Calm Calm - N/A   Partly Cloudy
7:35 AM 37.4 °F - 28.4 °F 70% 30.18 in 10.0 mi Calm Calm - N/A   Mostly Cloudy
7:55 AM 37.4 °F 34.9 °F 28.4 °F 70% 30.19 in 10.0 mi ENE 3.5 mph - N/A   Scattered Clouds
8:15 AM 37.4 °F 34.9 °F 28.4 °F 70% 30.19 in 10.0 mi NNE 3.5 mph - N/A   Mostly Cloudy
8:35 AM 39.2 °F - 28.4 °F 65% 30.18 in 10.0 mi Calm Calm - N/A   Scattered Clouds
8:55 AM 41.0 °F 39.0 °F 28.4 °F 61% 30.18 in 10.0 mi NE 3.5 mph - N/A   Partly Cloudy
9:15 AM 44.6 °F - 28.4 °F 53% 30.18 in 10.0 mi Calm Calm - N/A   Clear
9:35 AM 46.4 °F 45.2 °F 26.6 °F 46% 30.18 in 10.0 mi ENE 3.5 mph - N/A   Clear
9:55 AM 46.4 °F 43.5 °F 26.6 °F 46% 30.17 in 10.0 mi ENE 5.8 mph - N/A   Clear
10:15 AM 48.2 °F - 26.6 °F 43% 30.17 in 10.0 mi ENE 6.9 mph - N/A   Clear
10:35 AM 48.2 °F - 26.6 °F 43% 30.16 in 10.0 mi ENE 6.9 mph - N/A   Clear
10:55 AM 50.0 °F - 26.6 °F 40% 30.16 in 10.0 mi East 5.8 mph - N/A   Clear
11:15 AM 50.0 °F - 26.6 °F 40% 30.15 in 10.0 mi East 6.9 mph - N/A   Clear
11:35 AM 51.8 °F - 26.6 °F 38% 30.14 in 10.0 mi ENE 5.8 mph - N/A   Clear
11:55 AM 53.6 °F - 26.6 °F 35% 30.13 in 10.0 mi East 5.8 mph - N/A   Clear
12:15 PM 53.6 °F - 28.4 °F 38% 30.11 in 10.0 mi ENE 6.9 mph - N/A   Clear
12:35 PM 55.4 °F - 28.4 °F 36% 30.10 in 10.0 mi East 5.8 mph - N/A   Clear
12:55 PM 55.4 °F - 28.4 °F 36% 30.09 in 10.0 mi East 6.9 mph - N/A   Clear
1:15 PM 55.4 °F - 30.2 °F 38% 30.08 in 10.0 mi East 4.6 mph - N/A   Clear
1:35 PM 57.2 °F - 30.2 °F 36% 30.06 in 10.0 mi SE 4.6 mph - N/A   Clear
1:55 PM 57.2 °F - 30.2 °F 36% 30.05 in 10.0 mi SSE 4.6 mph - N/A   Clear
2:15 PM 57.2 °F - 32.0 °F 38% 30.04 in 10.0 mi SE 5.8 mph - N/A   Clear
2:35 PM 57.2 °F - 32.0 °F 38% 30.04 in 10.0 mi ESE 4.6 mph - N/A   Partly Cloudy
2:55 PM 57.2 °F - 32.0 °F 38% 30.03 in 10.0 mi East 6.9 mph - N/A   Scattered Clouds
3:15 PM 57.2 °F - 32.0 °F 38% 30.03 in 10.0 mi ESE 5.8 mph - N/A   Scattered Clouds
3:35 PM 55.4 °F - 32.0 °F 41% 30.03 in 10.0 mi East 6.9 mph - N/A   Partly Cloudy
3:55 PM 55.4 °F - 32.0 °F 41% 30.03 in 10.0 mi ESE 3.5 mph - N/A   Mostly Cloudy
4:15 PM 55.4 °F - 33.8 °F 44% 30.03 in 10.0 mi ESE 6.9 mph - N/A   Overcast
4:35 PM 55.4 °F - 35.6 °F 47% 30.03 in 10.0 mi SE 8.1 mph - N/A   Scattered Clouds
4:55 PM 53.6 °F - 35.6 °F 51% 30.02 in 10.0 mi SSE 5.8 mph - N/A   Scattered Clouds
5:15 PM 53.6 °F - 37.4 °F 54% 30.02 in 10.0 mi SSE 4.6 mph - N/A   Scattered Clouds
5:35 PM 51.8 °F - 37.4 °F 58% 30.02 in 10.0 mi SSE 4.6 mph - N/A   Partly Cloudy
5:55 PM 51.8 °F - 37.4 °F 58% 30.02 in 10.0 mi SSE 4.6 mph - N/A   Scattered Clouds
6:15 PM 50.0 °F - 37.4 °F 62% 30.03 in 10.0 mi SSE 5.8 mph - N/A   Mostly Cloudy
6:35 PM 50.0 °F - 37.4 °F 62% 30.02 in 10.0 mi Calm Calm - N/A   Overcast
6:55 PM 50.0 °F - 37.4 °F 62% 30.02 in 10.0 mi Calm Calm - N/A   Overcast
7:15 PM 50.0 °F - 37.4 °F 62% 30.02 in 10.0 mi Calm Calm - N/A   Overcast
7:35 PM 50.0 °F - 37.4 °F 62% 30.02 in 10.0 mi Calm Calm - N/A   Overcast
7:55 PM 50.0 °F - 37.4 °F 62% 30.02 in 10.0 mi East 4.6 mph - N/A   Overcast
8:15 PM 50.0 °F - 39.2 °F 66% 30.01 in 10.0 mi Calm Calm - N/A   Overcast
8:35 PM 48.2 °F - 39.2 °F 71% 30.01 in 10.0 mi East 4.6 mph - N/A   Overcast
8:55 PM 48.2 °F - 39.2 °F 71% 30.00 in 10.0 mi East 4.6 mph - N/A   Overcast
9:15 PM 48.2 °F - 39.2 °F 71% 30.00 in 10.0 mi East 5.8 mph - N/A   Overcast
9:35 PM 48.2 °F - 39.2 °F 71% 30.00 in 10.0 mi East 3.5 mph - N/A   Overcast
9:55 PM 46.4 °F 45.2 °F 39.2 °F 76% 30.00 in 10.0 mi East 3.5 mph - N/A   Overcast
10:15 PM 48.2 °F - 39.2 °F 71% 29.99 in 10.0 mi East 5.8 mph - N/A   Overcast
10:35 PM 46.4 °F 45.2 °F 39.2 °F 76% 29.99 in 10.0 mi East 3.5 mph - N/A   Overcast
10:55 PM 46.4 °F 45.2 °F 39.2 °F 76% 29.98 in 10.0 mi ENE 3.5 mph - N/A   Mostly Cloudy
11:15 PM 44.6 °F 43.1 °F 39.2 °F 81% 29.98 in 10.0 mi ENE 3.5 mph - N/A   Overcast
11:35 PM 44.6 °F - 37.4 °F 76% 29.98 in 10.0 mi Calm Calm - N/A   Overcast
11:55 PM 42.8 °F - 37.4 °F 81% 29.97 in 10.0 mi Calm Calm - N/A   Overcast